Regional Weather Roundup
Issued by NWS

Home | Current Version | Previous Version | Graphics & Text | Print | Product List | Glossary On
Versions: 1 2 3 4 5 6 7 8 9 10 11 12 13 14 15 16 17 18 19 20 21 22 23 24 25 26 27 28 29 30 31 32 33 34 35 36 37 38 39 40 41 42 43 44 45 46 47 48 49 50
000
ASUS43 KLOT 071512
RWRIL

ILLINOIS REGIONAL WEATHER ROUNDUP
NATIONAL WEATHER SERVICE CHICAGO/ROMEOVILLE IL
1000 AM CDT TUE JUL 07 2015

NOTE: "FAIR" INDICATES FEW OR NO CLOUDS BELOW 12,000 FEET WITH NO
SIGNIFICANT WEATHER AND/OR OBSTRUCTIONS TO VISIBILITY.

* THESE STATIONS ARE NOT UNDER NWS QUALITY CONTROL. THEY ALSO MAY NOT
  REPORT WEATHER SUCH AS PRECIPITATION OR FOG.

ILZ001-002-007-009-015-016-024-071600-
NORTHWEST ILLINOIS

CITY           SKY/WX    TMP DP  RH WIND       PRES   REMARKS
MOLINE         PTSUNNY   68  58  70 N14       30.02R HAZE
STERLING*        N/A     66  61  82 N10       30.01R
SAVANNA*       MOSUNNY   67  56  67 N10       30.02S HAZE
$$

ILZ003-004-008-010-011-017-018-071600-
NORTH CENTRAL ILLINOIS

CITY           SKY/WX    TMP DP  RH WIND       PRES   REMARKS
ROCKFORD       CLOUDY    64  56  75 E14       30.02S HAZE
FREEPORT*      CLOUDY    65  58  76 N9        30.04R HAZE
ROCHELLE*      CLOUDY    61  58  90 NE16      30.02R FOG
DE KALB*       CLOUDY    59  55  84 NE17G23   30.01S
PERU*          CLOUDY    63  59  87 N12G22    29.99R FOG
$$

ILZ005-006-012>014-019>023-071600-
NORTHEAST ILLINOIS

CITY           SKY/WX    TMP DP  RH WIND       PRES   REMARKS
CHICAGO-OHARE  CLOUDY    61  52  72 NE17G26   29.99R
CHICAGO-MIDWAY CLOUDY    62  51  67 N17G26    29.99R
AURORA         CLOUDY    64  53  67 NE18      30.00R
LANSING*       CLOUDY    57  54  89 N10       29.98R
JOLIET*        CLOUDY    62  56  80 NE15G22   29.98R
WAUKEGAN       MOSUNNY   62  51  67 N17G24    29.99R
DUPAGE AIRPORT CLOUDY    62  52  69 NE12      29.99R
KANKAKEE*      CLOUDY    59  56  89 N13G23    29.97R
WHEELING       CLOUDY    63  51  65 N13G21    30.01R
MORRIS*        CLOUDY    61  57  87 NE5       29.95R
ROMEOVILLE*    CLOUDY    60  53  77 NE20G28   29.99R
NORTHERLY ISL    N/A     58  52  80 N18         N/A
$$

LMZ740>746-071600-
SOUTHERN LAKE MICHIGAN

STATION/POSITION SKY/WX   TEMP    WIND        PRES    VSBY  WAVE
                          AIR SEA DIR/SP/G                  HT/PER
                          (F)     (DEG/KT/KT) (MB)    (MI)  (FT/S)
HARRISON CRIB              57     360/ 21/ 26   N/A
BURNHAM HARBOR             59     340/ 14/ 20   N/A
CALUMET HARBOR             58     360/ 13/ 18   N/A
BURNS HARBOR               59     360/ 18/ 23 1015.2
MICHIGAN CITY              59     340/ 23/ 25   N/A
MICHIGAN CITY 6N           59 65  360/ 16/ 19   N/A           7/ 6
ST. JOSEPH                 60 64   40/ 19/ 21   N/A           7/ 2
$$

ILZ025>027-034>036-040-047-049-050-058-095>099-071600-
WEST-CENTRAL ILLINOIS

CITY           SKY/WX    TMP DP  RH WIND       PRES   REMARKS
QUINCY         CLOUDY    65  60  84 N16       29.99R HAZE
GALESBURG*     CLOUDY    64  59  84 N16       30.00R HAZE
MACOMB*        CLOUDY    65  61  86 N16       30.02R FOG
JACKSONVILLE*  CLOUDY    67  65  93 N12       29.96R FOG
PITTSFIELD*    CLOUDY    65  63  93 N8        30.00R FOG
$$

ILZ028>032-037-038-041>044-048-051>054-059>061-071600-
CENTRAL ILLINOIS

CITY           SKY/WX    TMP DP  RH WIND       PRES   REMARKS
PONTIAC        CLOUDY    61  60  97 N16G24    29.98R FOG
BLOOMINGTON    LGT RAIN  64  63  97 NE16      29.97R FOG
DECATUR        CLOUDY    75  72  90 W7        29.91S
PEORIA         CLOUDY    65  61  87 NE12      29.97R FOG
LACON*         CLOUDY    64  60  85 NE6       29.98R
LINCOLN*       RAIN      67  64  93 N9G16     29.96R
SPRINGFIELD    LGT RAIN  67  64  90 N14       29.95R FOG
TAYLORVILLE    CLOUDY    68  68 100 N14       29.93R FOG
$$

ILZ033-039-045-046-055>057-062-063-071600-
EAST-CENTRAL ILLINOIS

CITY           SKY/WX    TMP DP  RH WIND       PRES   REMARKS
CHAMPAIGN      LGT RAIN  74  72  93 W5        29.92R
DANVILLE*      LGT RAIN  75  73  92 W5        29.89R
RANTOUL*       CLOUDY    71  68  92 N13G18    29.93R
MATTOON        RAIN      75  74  96 W3        29.90S FOG
PARIS*         LGT RAIN  73  72  98 CALM      29.92R
$$

ILZ079-100>102-071600-
SOUTHWEST ILLINOIS

CITY           SKY/WX    TMP DP  RH WIND       PRES   REMARKS
ALTON          LGT RAIN  73 N/A N/A W8        29.94R FOG
BELLEVILLE     DRIZZLE   75  75 100 SW9       29.93S
CAHOKIA*       CLOUDY    76  72  87 VRB6      29.94R
SPARTA*        DRIZZLE   74  72  91 SW6       29.97R
$$

ILZ064>066-069>071-074>076-080>082-084>086-088>090-092>094-071600-
SOUTH-CENTRAL ILLINOIS

CITY           SKY/WX    TMP DP  RH WIND       PRES   REMARKS
CARBONDALE     LGT RAIN  73  71  93 SW7       29.97S FOG
CAIRO*         CLOUDY    80  74  83 SW10      29.98R HX  84
EFFINGHAM*     CLOUDY    78  71  78 S8        29.92S HX  81
MARION         LGT RAIN  73  72  94 SW7       29.99R
MT. VERNON     CLOUDY    79  70  73 SW12      29.95S HX  81
CENTRALIA*     DRIZZLE   75  70  85 SW9       29.94S
SALEM*         CLOUDY    79  71  77 SW15      29.93S HX  82
$$

ILZ067-068-072-073-078-083-087-091-071600-
SOUTHEAST ILLINOIS

CITY           SKY/WX    TMP DP  RH WIND       PRES   REMARKS
LAWRENCEVILLE  CLOUDY    79  74  84 SW14      29.93S HX  82
FLORA*         CLOUDY    78  72  82 SW10      29.93S HX  80
FAIRFIELD*     CLOUDY    77  73  86 SW9       29.93S
HARRISBURG*    RAIN      73  73  98 SW7       29.99R
ROBINSON*      CLOUDY    79  73  82 SW10      29.93S HX  82
CARMI*         RAIN      77  71  82 SW5       29.95S
$$

ABBREVIATIONS USED IN REMARKS
   TC - TEMPERATURE IN CELSIUS
  WCI - WIND CHILL INDEX
   HX - HEAT INDEX
  VSB - VISIBILITY
$$



USA.gov is the U.S. government's official web portal to all federal, state and local government web resources and services.